#timestamp,LO_Frequency,Hit,StdDev 
1525582815.9,286046999.6,N
1525582835.7,286046999.0,N
1525582855.6,286046997.8,N
1525582875.4,286046996.1,Y
1525582895.3,286046997.0,P
1525582915.1,286046999.3,N
1525582916.0,286046999.3,N
1525582935.8,286046996.5,Y
1525582955.7,286047001.2,P
1525582975.5,286047000.8,N
1525582995.3,286047000.0,N
1525583015.2,286047001.4,N
1525583035.0,286046999.7,N
1525583035.9,286046999.7,N
1525583055.8,286047002.2,N
1525583075.6,286047000.9,N
1525583095.4,286047001.2,N
1525583115.3,286047000.5,N
1525583135.1,286047001.2,N
1525583155.9,286046999.3,N
1525583175.7,286046997.8,N
1525583195.5,286046996.9,N
1525583215.4,286046996.5,N
1525583235.2,286046997.4,N
1525583255.1,286046997.2,N
1525583256.0,286046997.2,N
1525583275.8,286046996.7,N
1525583295.6,286046996.7,N
1525583315.5,286046998.7,N
1525583335.3,286046996.6,N
1525583355.2,286046999.1,N
1525583375.9,286047001.2,N
1525583395.7,286046998.3,N
1525583415.6,286046998.9,N
1525583435.4,286046999.5,N
1525583455.3,286047000.0,N
1525583475.1,286047000.2,N
1525583476.0,286047000.2,N
1525583495.8,286046998.4,N
1525583515.7,286046998.1,N
1525583535.5,286046996.9,N
1525583555.4,286046997.0,N
1525583575.2,286046997.9,N
1525583595.0,286046996.1,N
1525583595.9,286046996.1,N
1525583615.8,286046997.1,N
1525583635.6,286046994.9,Y
1525583655.4,286046996.6,P
1525583675.3,286046997.1,P
1525583695.1,286046999.4,N
1525583715.9,286046997.2,N
1525583735.7,286046998.0,N
1525583755.5,286046991.8,Y
1525583775.4,286046997.9,P
1525583795.2,286046995.8,P
1525583815.1,286046997.8,N
1525583816.0,286046997.8,N
1525583835.8,286046995.2,Y
1525583855.6,286046999.0,P
1525583875.5,286046998.3,N
1525583895.3,286047001.0,N
1525583915.1,286047001.5,N
1525583935.9,286047005.7,Y
1525583955.7,286047004.0,P
1525583975.6,286047001.3,N
1525583995.4,286047000.7,N
1525584015.2,286047002.0,N
1525584035.1,286047004.0,N
1525584036.0,286047004.0,N
1525584055.8,286047003.1,N
1525584075.7,286047005.6,Y
1525584095.5,286047001.6,P
1525584115.3,286047000.1,N
1525584135.2,286046998.1,N
1525584155.0,286046998.1,N
1525584155.9,286046998.1,N
1525584175.8,286046998.6,N
1525584195.6,286047001.2,N
1525584215.4,286046999.0,N
1525584235.3,286046996.9,N
1525584255.1,286046998.2,N
1525584275.9,286047000.1,N
1525584295.7,286047001.1,N
1525584315.5,286047001.2,N
1525584335.4,286046998.7,N
1525584355.2,286046999.2,N
1525584375.0,286046998.3,N
1525584375.9,286046998.3,N
1525584395.8,286046999.1,N
1525584415.6,286046998.2,N
1525584435.5,286046999.7,N
1525584455.3,286047001.7,N
1525584475.1,286047000.2,N
1525584495.9,286047002.8,N
1525584515.7,286047002.4,N
1525584535.5,286047000.6,N
1525584555.4,286047002.5,N
1525584575.2,286047001.9,N
1525584595.0,286047001.8,N
1525584596.0,286047001.8,N
1525584615.8,286047002.4,N
1525584635.6,286047000.0,N
1525584655.5,286047000.0,N
1525584675.3,286047002.5,N
1525584695.1,286047004.2,N
1525584715.9,286047004.0,N
1525584735.7,286047001.7,N
1525584755.6,286047002.3,N
1525584775.4,286046998.8,N
1525584795.2,286046999.9,N
1525584815.1,286047001.8,N
1525584816.0,286047001.8,N
1525584835.8,286047003.9,N
1525584855.6,286047001.8,N
1525584875.5,286047004.4,N
1525584895.3,286047002.7,N
1525584915.2,286047002.5,N
1525584935.9,286047002.3,N
1525584955.7,286047002.3,N
1525584975.6,286047000.9,N
1525584995.4,286047000.0,N
1525585015.2,286047002.1,N
1525585035.1,286047003.0,N
1525585036.0,286047003.0,N
1525585055.8,286047005.7,Y
1525585075.7,286047001.7,P
1525585095.5,286047003.5,P
1525585115.3,286047001.4,N
1525585135.2,286047001.9,N
1525585155.0,286047002.4,Y
1525585155.9,286047002.4,P
1525585175.8,286047000.4,N
1525585195.6,286047001.7,N
1525585215.4,286047000.8,N
1525585235.3,286047000.8,N
1525585255.1,286047000.4,N
1525585275.9,286046999.9,N
1525585295.7,286047001.7,N
1525585315.5,286047001.9,N
1525585335.4,286047000.5,N
1525585355.2,286047001.0,N
1525585375.0,286047001.0,N
1525585375.9,286047001.0,N
1525585395.8,286046999.8,N
1525585415.6,286047000.4,N
1525585435.5,286046997.0,Y
1525585455.3,286046996.7,P
1525585475.1,286046998.8,N
1525585495.9,286046998.2,N
1525585515.7,286046999.7,N
1525585535.6,286046997.6,N
1525585555.4,286046996.2,N
1525585575.2,286046993.5,Y
1525585595.1,286046997.9,P
1525585596.0,286046997.9,P
1525585615.8,286046997.2,P
1525585635.7,286046997.3,Y
1525585655.5,286046998.0,P
1525585675.3,286046996.3,P
1525585695.2,286046995.7,P
1525585715.0,286046999.8,N
1525585715.9,286046999.8,N
1525585735.7,286047000.5,N
1525585755.6,286047000.0,N
1525585775.4,286047004.4,N
1525585795.3,286047003.2,N
1525585815.1,286047001.7,N
1525585816.0,286047001.7,N
1525585835.8,286047001.5,N
1525585855.7,286047002.8,N
1525585875.5,286047003.3,N
1525585895.3,286047001.8,N
1525585915.2,286047002.0,N
1525585935.0,286046999.8,N
1525585935.9,286046999.8,N
1525585955.8,286046998.4,N
1525585975.6,286046998.7,N
1525585995.4,286047001.6,N
1525586015.3,286047000.9,N
1525586035.1,286047002.5,N
1525586055.9,286047003.8,N
1525586075.7,286047002.5,N
1525586095.5,286047002.0,N
1525586115.4,286047002.7,N
1525586135.2,286047003.6,N
1525586155.0,286046999.8,N
1525586155.9,286046999.8,N
1525586175.8,286047000.2,N
1525586195.6,286046999.7,N
1525586215.5,286046999.9,N
1525586235.3,286047002.3,N
1525586255.1,286047000.2,N
1525586275.9,286047000.4,N
1525586295.7,286047000.1,N
1525586315.6,286046999.8,N
1525586335.4,286046998.6,N
1525586355.2,286046999.2,N
1525586375.1,286046999.3,N
1525586376.0,286046999.3,N
1525586395.8,286046997.9,N
